Lubbock, TX

3:40 AM CST on November 17, 2019 (GMT -0600)
Lubbock International

Weather History for KLBB - August, 2019

Change the Weather History Date:

Thursday, August 8, 2019

  Actual Average Record
Temperature  
Mean Temperature 90 °F 80 °F  
Max Temperature 99 °F 92 °F 105 °F (2003)
Min Temperature 80 °F 68 °F 58 °F (1989)
Degree Days  
Heating Degree Days 0 0  
Month to date heating degree days 0 0  
Since 1 June heating degree days 0 2  
Since 1 July heating degree days 0 0  
Cooling Degree Days 25 15  
Month to date cooling degree days 168 120  
Year to date cooling degree days 1275 1213  
Since 1 June cooling degree days 1065 967  
Growing Degree Days 40 (Base 50)    
Moisture  
Dew Point 60 °F    
Average Humidity 40    
Maximum Humidity 54    
Minimum Humidity 26    
Precipitation  
Precipitation 0.00 in 0.06 in 1.18 in (1949)
Month to date precipitation 0.13 0.49  
Year to date precipitation 13.58 11.65  
Snow  
Snow 0.00 in 0.00 in T in (1952)
Month to date snowfall 0.0 0.0  
Since 1 June snowfall 0.0 0.0  
Since 1 July snowfall 0.0 0.0  
Snow Depth 0.00 in    
Sea Level Pressure  
Sea Level Pressure 29.79 in    
Wind  
Wind Speed 12 mph (South)    
Max Wind Speed 22 mph    
Max Gust Speed 27 mph    
Visibility 10 miles    
Events Rain , Thunderstorm    
T = Trace of Precipitation, MM = Missing Value Source: NWS Daily Summary

Daily Weather History Graph

Daily Weather History Graph

Search for Another Location

Airport or City:

Astronomy

Aug. 08, 2019 Rise Set
Actual Time 7:04 AM CDT 8:41 PM CDT
Civil Twilight 6:37 AM CDT 9:07 PM CDT
Nautical Twilight 6:05 AM CDT 9:39 PM CDT
Astronomical Twilight 5:31 AM CDT 10:13 PM CDT
Moon 3:18 PM CDT (8/8) 1:25 AM CDT (8/8)
Length of Visible Light 14h 30m
Length of Day
13h 36m
First Quarter, 60% of the Moon is Illuminated
Aug 8
First Quarter
Aug 15
Full
Aug 23
Last Quarter
Aug 30
New
Sep 5
First Quarter

Hourly Weather History & Observations

Time (CDT) Temp. Heat Index Dew Point Humidity Pressure Visibility Wind Dir Wind Speed Gust Speed Precip Events Conditions
12:53 AM 80.1 °F 81.5 °F 63.0 °F 56% 29.79 in 10.0 mi East 4.6 mph - N/A   Mostly Cloudy
1:53 AM 81.0 °F 81.9 °F 62.1 °F 52% 29.77 in 10.0 mi SSE 5.8 mph - N/A   Scattered Clouds
2:53 AM 82.9 °F 83.2 °F 60.1 °F 46% 29.75 in 10.0 mi South 8.1 mph - N/A   Scattered Clouds
3:53 AM 82.9 °F 82.8 °F 59.0 °F 44% 29.75 in 10.0 mi South 11.5 mph - N/A   Mostly Cloudy
4:53 AM 82.9 °F 82.8 °F 59.0 °F 44% 29.75 in 10.0 mi SW 12.7 mph - N/A   Mostly Cloudy
5:53 AM 82.0 °F 82.1 °F 59.0 °F 45% 29.77 in 10.0 mi SW 11.5 mph - N/A   Mostly Cloudy
6:38 AM 80.1 °F 80.9 °F 60.1 °F 50% 29.98 in 10.0 mi WSW 8.1 mph - N/A Thunderstorm Thunderstorm
6:53 AM 80.1 °F 80.9 °F 60.1 °F 50% 29.79 in 10.0 mi WSW 8.1 mph - N/A Thunderstorm Thunderstorm
7:09 AM 80.1 °F 80.9 °F 60.1 °F 50% 29.98 in 10.0 mi SW 8.1 mph - N/A   Mostly Cloudy
7:53 AM 81.0 °F 81.6 °F 60.1 °F 49% 29.80 in 10.0 mi SSW 12.7 mph - N/A   Mostly Cloudy
8:53 AM 84.9 °F 85.0 °F 61.0 °F 44% 29.81 in 10.0 mi SSW 16.1 mph - N/A   Mostly Cloudy
9:53 AM 82.0 °F 83.0 °F 62.1 °F 51% 29.83 in 10.0 mi SW 15.0 mph - N/A   Mostly Cloudy
10:53 AM 90.0 °F 90.0 °F 61.0 °F 38% 29.82 in 10.0 mi SW 13.8 mph - N/A   Scattered Clouds
11:53 AM 89.1 °F 89.3 °F 62.1 °F 40% 29.83 in 10.0 mi SSW 11.5 mph - N/A   Mostly Cloudy
12:53 PM 91.9 °F 92.9 °F 63.0 °F 38% 29.83 in 10.0 mi South 9.2 mph - N/A   Scattered Clouds
1:53 PM 93.9 °F 93.6 °F 60.1 °F 32% 29.81 in 10.0 mi SSE 11.5 mph 20.7 mph N/A   Partly Cloudy
2:53 PM 97.0 °F 97.8 °F 62.1 °F 31% 29.79 in 10.0 mi South 12.7 mph 25.3 mph N/A   Partly Cloudy
3:53 PM 99.0 °F 98.6 °F 59.0 °F 26% 29.76 in 10.0 mi SSE 13.8 mph 23.0 mph N/A   Partly Cloudy
4:53 PM 99.0 °F 98.6 °F 59.0 °F 26% 29.74 in 10.0 mi SE 11.5 mph - N/A   Partly Cloudy
5:53 PM 98.1 °F 96.8 °F 57.0 °F 25% 29.72 in 10.0 mi SSE 17.3 mph - N/A   Scattered Clouds
6:53 PM 97.0 °F 95.7 °F 57.0 °F 26% 29.72 in 10.0 mi SSE 13.8 mph 21.9 mph N/A   Mostly Cloudy
7:53 PM 93.9 °F 92.6 °F 57.0 °F 29% 29.72 in 10.0 mi SSE 13.8 mph - N/A   Mostly Cloudy
8:53 PM 91.0 °F 89.2 °F 55.9 °F 30% 29.73 in 10.0 mi SSE 11.5 mph - N/A   Scattered Clouds
9:53 PM 87.1 °F 86.1 °F 57.9 °F 37% 29.75 in 10.0 mi SSE 10.4 mph - N/A   Partly Cloudy
10:53 PM 86.0 °F 85.0 °F 57.9 °F 38% 29.78 in 10.0 mi SSE 8.1 mph - N/A   Partly Cloudy
11:53 PM 84.0 °F 83.5 °F 57.9 °F 41% 29.79 in 10.0 mi SE 11.5 mph - N/A   Scattered Clouds